TimeEDT,TemperatureF,Dew PointF,Humidity,Sea Level PressureIn,VisibilityMPH,Wind Direction,Wind SpeedMPH,Gust SpeedMPH,PrecipitationIn,Events,Conditions,WindDirDegrees,DateUTC
12:52 AM,60.1,57.0,90,30.06,10.0,Calm,Calm,-,N/A,,Clear,0,2013-07-27 04:52:00
1:52 AM,57.9,55.9,93,30.06,10.0,Calm,Calm,-,N/A,,Clear,0,2013-07-27 05:52:00
2:52 AM,57.9,55.9,93,30.06,10.0,SSE,4.6,-,N/A,,Clear,150,2013-07-27 06:52:00
3:52 AM,57.9,55.0,90,30.06,10.0,South,5.8,-,N/A,,Clear,190,2013-07-27 07:52:00
4:52 AM,57.0,55.0,93,30.07,10.0,Calm,Calm,-,N/A,,Clear,0,2013-07-27 08:52:00
5:52 AM,54.0,53.1,97,30.08,10.0,South,3.5,-,N/A,,Clear,170,2013-07-27 09:52:00
6:52 AM,57.0,55.0,93,30.08,10.0,South,5.8,-,N/A,,Clear,170,2013-07-27 10:52:00
7:52 AM,62.1,55.9,80,30.09,10.0,South,4.6,-,N/A,,Clear,180,2013-07-27 11:52:00
8:52 AM,66.9,55.9,68,30.09,10.0,Calm,Calm,-,N/A,,Clear,0,2013-07-27 12:52:00
9:52 AM,70.0,57.9,65,30.09,10.0,South,6.9,-,N/A,,Clear,170,2013-07-27 13:52:00
10:52 AM,73.9,57.0,55,30.09,10.0,Variable,3.5,-,N/A,,Clear,0,2013-07-27 14:52:00
11:52 AM,75.9,55.0,48,30.09,10.0,Variable,3.5,-,N/A,,Partly Cloudy,0,2013-07-27 15:52:00
12:52 PM,77.0,55.9,48,30.08,10.0,Calm,Calm,-,N/A,,Scattered Clouds,0,2013-07-27 16:52:00
1:52 PM,78.1,57.0,48,30.07,10.0,SSW,10.4,-,N/A,,Mostly Cloudy,200,2013-07-27 17:52:00
2:52 PM,79.0,55.9,45,30.06,10.0,SSW,8.1,-,N/A,,Partly Cloudy,210,2013-07-27 18:52:00
3:52 PM,79.0,57.9,48,30.05,10.0,SSW,10.4,-,N/A,,Partly Cloudy,200,2013-07-27 19:52:00
4:52 PM,79.0,57.0,47,30.04,10.0,SSW,9.2,-,N/A,,Partly Cloudy,200,2013-07-27 20:52:00
5:52 PM,77.0,57.9,52,30.04,10.0,South,5.8,-,N/A,,Clear,190,2013-07-27 21:52:00
6:52 PM,75.9,59.0,56,30.03,10.0,Calm,Calm,-,N/A,,Clear,0,2013-07-27 22:52:00
7:52 PM,72.0,61.0,68,30.04,10.0,Calm,Calm,-,N/A,,Clear,0,2013-07-27 23:52:00
8:52 PM,68.0,61.0,78,30.04,10.0,Calm,Calm,-,N/A,,Clear,0,2013-07-28 00:52:00
9:52 PM,64.9,61.0,87,30.05,10.0,Calm,Calm,-,N/A,,Clear,0,2013-07-28 01:52:00
10:52 PM,66.9,62.1,84,30.06,10.0,Calm,Calm,-,N/A,,Clear,0,2013-07-28 02:52:00
11:52 PM,66.0,62.1,87,30.05,10.0,SW,3.5,-,N/A,,Clear,220,2013-07-28 03:52:00